Погода Санкт-Петербург

Погода Санкт-Петербург : погода сейчас, прогноз погоды и архив. Всё, что Вы хотите узнать о погоде Санкт-Петербург!

Хотите узнать прогноз погоды в Санкт-Петербурге? Тогда Вам сюда: Погода в Санкт-Петербурге

Поиск расширенной информации на нашем сайте:

Другие новости

Новости СМИ2

Главная страница сайта

Новости сайта

02.10.2013

Напоминаем, что на нашем новом сайте вы можете получить высокодетализированные прогнозы погоды по пунктам России, СНГ и мира (включающие важные для авиации метеовеличины, такие как направление и скорость ветра, видимость, явления погоды, количество и форма облачности, нижняя и верхняя граница облачности), а также ознакомиться с разнообразными материалами по авиационной метеорологии и подборкой полезных ссылок на эту тему.

Сайт Метеоцентр.Азия посвящён разработке технологий оптимизации авиаметеорологического обслуживания, включая проектирование и перспективное создание нескольких автоматизированных авиаметеорологических систем:
- система выпуска высокодетальных прогностических карт явлений погоды для нижнего воздушного пространства по России и ближнему зарубежью;
- система верификации прогнозов TAF (выпускаемых синоптиками официальных АМСГ РФ и ближнего зарубежья) и AUTOTAF (выпускаемых сайтом Метеоцентр.Азия) - выявление ошибок, онлайн-сопоставление с фактической погодой METAR, автоматическое внесение коррективов в прогнозы при резком отклонении фактической погоды от прогноза, подсчёт оправдываемости прогнозов по элементам и в целом;
- система обработки, анализа и отображения авиаметеорологической информации для применения провайдерами метеорологической информации.


Погода Санкт-Петербург - сегодня

Время (UTC), дата Ветер
(°,м/с) 
Видим.   Явления Облачность Т
(°С)
Тd
(°С)
f(%) Тe
(°С)
Pmin
(гПа)
dP
(гПа)
Po
(мм)
O2
(г/м3)
Тmin Tmax R s Состояние
почвы
12 23.02.17 120 (ЮВ) 3{10}  4000 м  слаб. снег  10/10 200 м 
[Frnb|Ns]
-0.9 -2.4 90 -3  977.8  -0.6  733  296           
15 23.02.17 150 (ЮВ) 4000 м  снег  10/10 600 м 
[Frnb|Ns]
+0.3 -0.3 96 977.5  -0.2  733  295      0.8     
18 23.02.17 240 (ЮЗ) 10 км  в посл. час снег  8/8 300 м 
[Sc]
-0.5 -3.5 80 -2  979.2  1.6  734  297    +0.5     
21 23.02.17 230 (ЮЗ) 4000 м  слаб. снег  10/10 300 м 
[Frnb|Ns]
-1.4 -3.4 86 -2  980.3  1.1  735  298           
00 24.02.17 240 (ЮЗ) 4000 м  слаб. снег  10/10 300 м 
[Frnb|Ns]
-3 -4 93 -5  981.9  1.6  736  300           
03 24.02.17 220 (ЮЗ) 4000 м  слаб. снег  10/10 300 м 
[Frnb|Ns]
-3.7 -5.8 85 -5  982.8  0.9  737  301  -3.7       
06 24.02.17 200 (Ю) 10 км  {снег}  3/0 средняя 
[Ac trans]
-4.4 -6.8 83 -7  983.2  0.4  737  302  -4.4    равномерный
сухой снег
100% 
09 24.02.17 220 (ЮЗ) 10 км    9/0 средняя 
[Ac trans]
-2.3 -7.2 69 -5  982.5  -0.7  736  300           
12 24.02.17 230 (ЮЗ) 4{10}  10 км  в посл. час снег  9/4 300 м средняя 
[Sc|Ac trans]
-1.8 -6.4 71 -5  982.8  0.3  737  299           
15 24.02.17 240 (ЮЗ) 4000 м  слаб. снег{ливн. осадки}  10/10 300 м 
[Frnb|Ns]
-4 -6 86 -5  984  1.1  737  302      0.7     
18 24.02.17 240 (ЮЗ) 4000 м  слаб. снег{ливн. осадки}  10/10 300 м 
[Frnb|Ns]
-4 -6.8 81 -6  984.5  0.5  738  302    -1  0.6     
21 24.02.17 280 (З) 4000 м  слаб. снег  10/10 200 м 
[Frnb|Ns]
-6.9 -8.2 90 -8  985.9  1.4  739  306           
00 25.02.17 250 (З) 4000 м  слаб. снег  10/10 200 м 
[Frnb|Ns]
-9 -10.2 91 -11  987.3  1.4  740  309           
03 25.02.17 280 (З) 4000 м  слаб. снег  10/10 300 м 
[Frnb|Ns]
-8.7 -10.3 88 -10  989.1  1.8  741  309  -9.8       
06 25.02.17 300 (СЗ) 10 км  слаб. снег  10/6 300 м средняя, верхняя 
[Sc|As op|Ci fib]
-9 -11.2 84 -12  991.3  2.2  743  311  -9.8    10  равномерный
сухой снег
100% 
09 25.02.17 260 (З) 4000 м  слаб. снег  10/0 средняя 
[As op]
-8.4 -10.5 85 -11  993.5  2.2  745  311           
12 25.02.17 270 (З) 4-10{11}  10 км  {снег}  6/4 300 м верхняя 
[Sc|Cs]
-7.6 -11 77 -11  995.7  2.2  746  310           
15 25.02.17 280 (З) 2{10}  10 км  в посл. час снег  9/0 средняя, верхняя 
[As op|Cs]
-7.7 -10 84 -9  997.7  748  311      0.1     
18 25.02.17 260 (З) 10 км  {снег}  8/0 средняя 
[Ac trans]
-7 -8.8 87 -8  998.4  0.7  748  310    -6  0.1     
21 25.02.17 250 (З) 10 км    4/0 средняя 
[Ac As]
-6.8 -8.4 88 -8  999.1  0.7  749  310           
00 26.02.17 280 (З) 10 км    10/10 960 м 
[Sc]
-3.4 -6 82 -6  999.5  0.5  749  306           
03 26.02.17 290 (З) 10 км    9/9 1050 м 
[Sc]
-2.5 -5.4 80 -4  999.6  749  305  -7.8         
06 26.02.17 260 (З) 4000 м  слаб. снег  9/9 300 м 
[Sc]
-2.6 -4.4 87 -5  999.3  -0.3  749  305  -7.3    0.0  равномерный
сухой снег
100% 
09 26.02.17 210 (ЮЗ) 10 км  {снег}  9/9 600 м 
[Sc]
-2.6 -6.3 76 -4  999.4  0.1  749  305           
12 26.02.17 220 (ЮЗ) 10 км  {снег}  10/10 210 м 
[St]
-1.4 -5.2 75 -1  998.5  -0.9  748  304           
Время (UTC), дата Ветер
(°,м/с) 
Видим.   Явления Облачность Т
(°С)
Тd
(°С)
f(%) Тe
(°С)
Pmin
(гПа)
dP
(гПа)
Po
(мм)
O2
(г/м3)
Тmin Tmax R s Состояние
почвы

Для получения пояснительной информации подведите курсор к названию столбца.

ПОГОДА Санкт-Петербург - архив

Всё, что Вы хотите узнать о погоде Санкт-Петербург - удобно и подробно!

Выберите нужную дату (начиная с 1 января 2015* года) и нажмите кнопку "Найти".
Будут отображены архивные сводки погоды по пункту Санкт-Петербург, начиная с указанной даты.


Отображать данные в формате CSV (для использования в таблицах Excel)


Внимание! Наш архив погоды предназначен исключительно для личного некоммерческого использования в познавательных целях. Если Вам необходимы официальные справки о состоянии погоды (для производственных, юридических, коммерческих и т.п. целей), обращайтесь в органы Росгидромета.

*Примечание: данная дата относится к архиву по метеостанциям СССР (Россия, СНГ, Балтия).
Архив по метеостанциям Зарубежной Европы и Азии (кроме Китая) хранится 10 дней, по другим регионам земного шара (Китай, Африка, Америка, Австралия, Океания) - 1 день.

Санкт-Петербург - район местоположения метеостанции


Название, широта, долгота, высота метеостанции:
Санкт-Петербург (ИЦП) 60°ш. 30.3°д. 6 м над ур. моря [Российская Федерация]

Дополнительная информация

В oтличие oт бoльшинства пoгoдных сайтoв мы публикуем пoдрoбную метеoинфoрмацию в детальнoм прoфессиoнальнoм фoрмате.

Характеристики температуры и влажнoсти вoздуха измеряются на высoте 2 м в тени вдали oт зданий и деревьев.
Скoрoсть ветра измеряется на высoте 10 м (на урoвне рoста челoвека скoрoсть ветра ниже в 1.5-2 раза). Если метеoстанция нахoдится в гoрoде или в лесу, тo скoрoсть ветра занижена на 2-4 м/с пo сравнению с oткрытым местoм. Скoрoсть ветра над акватoриями крупных рек и oзёр, а также на вершинах хoлмoв на 2-5 м/с выше, чем в oбычных услoвиях.
Атмoсфернoе давление в разных тoчках местнoсти мoжет значительнo oтличаться oт давления на метеoстанции, в зависимoсти oт услoвий рельефа (при пoдъёме на 10 м давление пoнижается примернo на 1 мм рт.ст.).